Walterboro, SC

9:09 PM EDT on September 22, 2017 (GMT -0400)
Lowcountry Regional

Weather History for KRBW - July, 2013

Change the Weather History Date:

Tuesday, July 2, 2013

  Actual Average Record
Temperature  
Mean Temperature 74 °F -  
Max Temperature 78 °F 90 °F 95 °F (2016)
Min Temperature 71 °F 69 °F 66 °F (2010)
Cooling Degree Days 10    
Growing Degree Days 24 (Base 50)    
Moisture  
Dew Point 75 °F    
Average Humidity 100    
Maximum Humidity 100    
Minimum Humidity 100    
Precipitation  
Precipitation 0.00 in - - ()
Sea Level Pressure  
Sea Level Pressure 30.09 in    
Wind  
Wind Speed 4 mph (SSE)    
Max Wind Speed 12 mph    
Max Gust Speed 21 mph    
Visibility 9 miles    
Events Rain , Thunderstorm    
Averages and records for this station are not official NWS values.
T = Trace of Precipitation, MM = Missing Value Source: NWS Daily Summary

Daily Weather History Graph

Daily Weather History Graph

Search for Another Location

Airport or City:

Trip Planner

Search our weather history database for the weather conditions in past years. The results will help you decide how hot, cold, wet, or windy it might be!

Date:

Astronomy

Jul. 02, 2013 Rise Set
Actual Time 6:18 AM EDT 8:34 PM EDT
Civil Twilight 5:49 AM EDT 9:03 PM EDT
Nautical Twilight 5:14 AM EDT 9:38 PM EDT
Astronomical Twilight 4:36 AM EDT 10:16 PM EDT
Moon 2:11 AM EDT (7/2) 3:54 PM EDT (7/2)
Length of Visible Light 15h 13m
Length of Day
14h 16m
Waning Crescent, 26% of the Moon is Illuminated
Jul 2
Waning Crescent
Jul 8
New
Jul 15
First Quarter
Jul 22
Full
Jul 29
Last Quarter

Hourly Weather History & Observations

Time (EDT) Temp. Dew Point Humidity Pressure Visibility Wind Dir Wind Speed Gust Speed Precip Events Conditions
12:15 AM 73.4 °F 73.4 °F 100% 30.02 in 10.0 mi SSE 3.5 mph - N/A   Clear
12:35 AM 73.4 °F 73.4 °F 100% 30.03 in 10.0 mi SSE 4.6 mph - N/A   Clear
12:55 AM 73.4 °F 73.4 °F 100% 30.03 in 10.0 mi Calm Calm - N/A   Mostly Cloudy
1:15 AM 73.4 °F 73.4 °F 100% 30.03 in 10.0 mi Calm Calm - N/A   Mostly Cloudy
1:35 AM 73.4 °F 73.4 °F 100% 30.03 in 10.0 mi Calm Calm - N/A   Mostly Cloudy
1:55 AM 73.4 °F 73.4 °F 100% 30.03 in 10.0 mi Calm Calm - N/A   Mostly Cloudy
2:15 AM 73.4 °F 73.4 °F 100% 30.02 in 10.0 mi SSE 5.8 mph - N/A Rain Light Rain
2:35 AM 73.4 °F 73.4 °F 100% 30.01 in 10.0 mi SSE 9.2 mph - N/A Rain Rain
2:55 AM 73.4 °F 73.4 °F 100% 30.01 in 10.0 mi South 5.8 mph - N/A   Scattered Clouds
3:15 AM 73.4 °F 73.4 °F 100% 30.02 in 10.0 mi SSW 4.6 mph - N/A   Mostly Cloudy
3:35 AM 73.4 °F 73.4 °F 100% 30.02 in 10.0 mi South 3.5 mph - N/A Rain Light Rain
3:55 AM 73.4 °F 73.4 °F 100% 30.03 in 10.0 mi Calm Calm - N/A   Overcast
4:15 AM 73.4 °F 73.4 °F 100% 30.03 in 10.0 mi Calm Calm - N/A   Light Drizzle
4:35 AM 73.4 °F 73.4 °F 100% 30.04 in 7.0 mi Calm Calm - N/A Rain Rain
4:55 AM 73.4 °F 73.4 °F 100% 30.04 in 7.0 mi West 6.9 mph - N/A Rain Heavy Rain
5:15 AM 71.6 °F 71.6 °F 100% 30.04 in 5.0 mi SSW 10.4 mph - N/A Rain Heavy Rain
5:35 AM 71.6 °F 71.6 °F 100% 30.04 in 3.0 mi SSW 10.4 mph - N/A Rain Heavy Rain
5:55 AM 71.6 °F 71.6 °F 100% 30.06 in 7.0 mi South 9.2 mph - N/A Rain Heavy Rain
6:15 AM 71.6 °F 71.6 °F 100% 30.06 in 1.8 mi South 10.4 mph 17.3 mph N/A Rain Heavy Rain
6:35 AM 71.6 °F 71.6 °F 100% 30.07 in 10.0 mi SSW 6.9 mph - N/A Rain Rain
6:55 AM 71.6 °F 71.6 °F 100% 30.07 in 10.0 mi SSW 4.6 mph - N/A Rain Rain
7:15 AM 71.6 °F 71.6 °F 100% 30.08 in 10.0 mi SSW 5.8 mph - N/A Rain Rain
7:35 AM 71.6 °F 71.6 °F 100% 30.08 in 10.0 mi SSW 3.5 mph - N/A   Drizzle
7:55 AM 71.6 °F 71.6 °F 100% 30.09 in 10.0 mi South 3.5 mph - N/A Rain Rain
8:15 AM 73.4 °F 73.4 °F 100% 30.09 in 10.0 mi South 3.5 mph - N/A   Drizzle
8:35 AM 73.4 °F 73.4 °F 100% 30.09 in 10.0 mi Calm Calm - N/A   Mostly Cloudy
8:55 AM 73.4 °F 73.4 °F 100% 30.10 in 10.0 mi Calm Calm - N/A Rain Light Rain
9:15 AM 73.4 °F 73.4 °F 100% 30.10 in 10.0 mi Calm Calm - N/A   Overcast
9:35 AM 73.4 °F 73.4 °F 100% 30.10 in 10.0 mi Calm Calm - N/A   Mostly Cloudy
9:55 AM 75.2 °F 75.2 °F 100% 30.10 in 10.0 mi Calm Calm - N/A   Scattered Clouds
10:15 AM 77.0 °F 77.0 °F 100% 30.10 in 10.0 mi SSE 3.5 mph - N/A Rain Light Rain
10:35 AM 77.0 °F 77.0 °F 100% 30.09 in 10.0 mi Calm Calm - N/A   Overcast
10:55 AM 77.0 °F 77.0 °F 100% 30.09 in 10.0 mi SE 4.6 mph - N/A   Overcast
11:15 AM 78.8 °F 78.8 °F 100% 30.10 in 10.0 mi SSE 6.9 mph - N/A   Light Drizzle
11:35 AM 77.0 °F 77.0 °F 100% 30.10 in 10.0 mi SE 5.8 mph - N/A   Drizzle
11:55 AM 77.0 °F 77.0 °F 100% 30.11 in 3.0 mi South 6.9 mph - N/A Rain Heavy Rain
12:15 PM 77.0 °F 77.0 °F 100% 30.11 in 7.0 mi SSE 10.4 mph - N/A Rain Light Rain
12:35 PM 77.0 °F 77.0 °F 100% 30.11 in 10.0 mi SSE 9.2 mph - N/A   Overcast
12:55 PM 77.0 °F 77.0 °F 100% 30.11 in 10.0 mi SE 8.1 mph - N/A Rain Light Rain
1:15 PM 73.4 °F 73.4 °F 100% 30.11 in 5.0 mi SSE 11.5 mph 20.7 mph N/A Rain Rain
1:35 PM 73.4 °F 73.4 °F 100% 30.12 in 10.0 mi South 9.2 mph - N/A Rain Rain
1:55 PM 71.6 °F 71.6 °F 100% 30.12 in 10.0 mi SSE 8.1 mph - N/A Rain Rain
2:15 PM 71.6 °F 71.6 °F 100% 30.12 in 10.0 mi SE 8.1 mph - N/A Rain Rain
2:35 PM 71.6 °F 71.6 °F 100% 30.11 in 10.0 mi SE 5.8 mph - N/A Rain Rain
2:55 PM 71.6 °F 71.6 °F 100% 30.10 in 10.0 mi SE 8.1 mph - N/A Rain Light Rain
3:15 PM 73.4 °F 73.4 °F 100% 30.09 in 10.0 mi ESE 6.9 mph - N/A   Scattered Clouds
3:35 PM 75.2 °F 75.2 °F 100% 30.08 in 10.0 mi ESE 8.1 mph - N/A   Scattered Clouds
3:55 PM 77.0 °F 77.0 °F 100% 30.09 in 10.0 mi East 4.6 mph - N/A   Mostly Cloudy
4:15 PM 77.0 °F 77.0 °F 100% 30.09 in 10.0 mi East 5.8 mph - N/A Rain Rain
4:35 PM 77.0 °F 77.0 °F 100% 30.09 in 10.0 mi ESE 6.9 mph - N/A Thunderstorm Drizzle
4:55 PM 77.0 °F 77.0 °F 100% 30.09 in 10.0 mi SE 3.5 mph - N/A Rain Rain
5:15 PM 77.0 °F 77.0 °F 100% 30.09 in 10.0 mi ESE 5.8 mph - N/A Rain Rain
5:35 PM 77.0 °F 77.0 °F 100% 30.08 in 10.0 mi ESE 5.8 mph - N/A Thunderstorm Thunderstorm
5:55 PM 77.0 °F 77.0 °F 100% 30.09 in 10.0 mi SSE 5.8 mph - N/A Rain , Thunderstorm Thunderstorms and Rain
6:15 PM 77.0 °F 77.0 °F 100% 30.10 in 7.0 mi SSE 3.5 mph - N/A Rain Rain
6:35 PM 77.0 °F 77.0 °F 100% 30.10 in 10.0 mi Calm Calm - N/A   Mostly Cloudy
6:55 PM 77.0 °F 77.0 °F 100% 30.09 in 10.0 mi Calm Calm - N/A Rain Light Rain
7:15 PM 77.0 °F 77.0 °F 100% 30.10 in 10.0 mi SE 4.6 mph - N/A   Scattered Clouds
7:35 PM 77.0 °F 77.0 °F 100% 30.11 in 10.0 mi SE 3.5 mph - N/A   Scattered Clouds
7:55 PM 77.0 °F 77.0 °F 100% 30.12 in 10.0 mi SSE 5.8 mph - N/A   Mostly Cloudy
8:15 PM 77.0 °F 77.0 °F 100% 30.13 in 10.0 mi SSE 5.8 mph - N/A   Overcast
8:35 PM 77.0 °F 77.0 °F 100% 30.13 in 10.0 mi SSE 4.6 mph - N/A   Scattered Clouds
8:55 PM 77.0 °F 77.0 °F 100% 30.13 in 10.0 mi SE 5.8 mph - N/A   Scattered Clouds
9:15 PM 77.0 °F 77.0 °F 100% 30.13 in 10.0 mi SSE 4.6 mph - N/A   Scattered Clouds
9:35 PM 75.2 °F 75.2 °F 100% 30.14 in 10.0 mi SSE 5.8 mph - N/A   Scattered Clouds
9:55 PM 75.2 °F 75.2 °F 100% 30.14 in 10.0 mi SSE 3.5 mph - N/A   Scattered Clouds
10:15 PM 75.2 °F 75.2 °F 100% 30.14 in 10.0 mi SE 3.5 mph - N/A   Clear
10:35 PM 75.2 °F 75.2 °F 100% 30.16 in 10.0 mi Calm Calm - N/A   Scattered Clouds
10:55 PM 75.2 °F 75.2 °F 100% 30.16 in 10.0 mi Calm Calm - N/A   Scattered Clouds
11:15 PM 73.4 °F 73.4 °F 100% 30.16 in 10.0 mi Calm Calm - N/A   Clear
11:35 PM 73.4 °F 73.4 °F 100% 30.16 in 10.0 mi ESE 3.5 mph - N/A   Scattered Clouds
11:55 PM 73.4 °F 73.4 °F 100% 30.16 in 10.0 mi ESE 3.5 mph - N/A   Clear